Location: Dittelbrunn
(50.0738°N, 10.2196°E)
Time: 00:57:55
(UTC+00:00)

Exosat Rocket - Pass Details

Date: 18 September 2020
Orbit: 760 x 2514 km, 72.3° (Epoch: 30 October)

Event Time Altitude Azimuth Distance (km) Brightness Sun altitude
Rises 18:59:19 0° 178° (S) 3,677 6.8 -15.5°
Reaches altitude 10° 19:02:14 10° 170° (S) 2,561 5.9 -16.0°
Maximum altitude 19:07:12 34° 107° (ESE) 1,290 4.1 -16.7°
Drops below altitude 10° 19:11:41 10° 43° (NE) 2,303 5.8 -17.3°
Sets 19:14:09 0° 34° (NNE) 3,253 6.7 -17.7°
